CZ-6A DEB, 54294

Orbit data source: Space-Track

CZ-6A DEB, 54294 is space debris in SSO originally from a launch on Fri, 11 Nov 2022 UTC launched from the Taiyaun Space Center, China (TSC). Debris objects in space refer to the collection of defunct objects orbiting the Earth. Examples of debris include non-operational satellites, rocket bodies, and fragments generated from explosions, collisions, or faulty payload assembly.

Loading next visibility...
Identifier
54294, 2022-151AM
Orbit
SSO
Country
Flag of CNCN / PRC
Related business
Manufacturer
SAST
Mission
Spacecraft
Bus & Motor
Unknown
Mass
Unknown
Launch date (UTC)
2022-11-11 (3 years ago)
Launch vehicle
Unknown
Launch site
Taiyaun Space Center, China (TSC)
Object type
Payload
Rocket body
Debris
Shape & HBR
Unknown shape, 0.1 m
Radar Cross Section
Small (<0.1 m²)

Expand to show TLE details & history
Last TLE update: 12 hours ago

TLE from 12 hours ago
0 CZ-6A DEB
1 54294U 22151AM  25352.49128240  .00005025  00000-0  76281-3 0  9991
2 54294  98.7564  80.5573 0119055  62.0283 299.2910 14.69854865164464
Epoch: 2025-12-18T11:47Z
TLE epoch observation values (Epoch: 2025-12-18T11:47:26.799Z)
Latitude
Longitude
176.34961°
Altitude
624.266 km
Speed
7.568 km/s
True Right ascension
05h 22m 13s
True Declination
0° 00' 00"
Sunlit
Object was in full shadow at epoch
Visualization orbit readout
Latitude
Unknown
Longitude
Unknown
Altitude
Unknown
Speed
Unknown
Apparent Right ascension
Unknown
Apparent Declination
Unknown
Sunlit
N/A
Visualization observer readout
Local Sidereal Time
23:01:41
Azimuth
Unknown
Elevation
Unknown
Doppler factor
Unknown
Orbital elements
Apogee altitude
742.402 km
Perigee altitude
574.849 km
Semi-major axis
7,036.762 km
Eccentricity
0.01191
Inclination
98.7564°
RAAN
80.5573°
Arg. of periapsis
62.0283°
True anomaly
298.09252°
Mean anomaly
299.291°
Eccentric anomaly
298.69263°
Mean motion
3.67692 °/min
Orbital period
97.91 mins
BSTAR
0.00076281
Loading maneuver chart data...
Computing Atmospheric mass density...

Documentation

Showing up to 5 results
|